Dewpoint
72 74 76 76 75 75 75 76 76 76 76 76 76 75 75 75 75 74 75 74 74 74 73 73 73 73 73 73 74 73 72 72 72 72 72 73 73 72 72 72 72 67 72
72 72 76 76 75 75 76 76 75 76 76 75 75 75 75 75 75 75 75 74 73 73 74 73 73 73 73 73 73 73 74 73 73 73 71 71 72 72 72 72 72 70 72
71 71 74 77 75 76 75 75 75 75 75 75 75 75 75 74 75 73 73 74 72 74 74 73 73 73 73 73 73 73 73 72 72 70 70 69 69 71 72 72 72 71 71
69 70 72 77 76 75 75 75 75 75 75 75 74 75 75 74 74 73 73 72 73 73 73 73 73 72 72 72 72 72 72 73 73 72 68 64 66 71 71 73 73 71 71
70 70 73 76 76 76 75 75 75 75 75 74 72 74 74 73 73 73 73 73 73 73 73 72 71 71 71 71 71 72 72 72 72 72 70 68 67 66 72 73 72 71 71
70 68 74 76 76 76 75 76 76 75 75 73 74 75 75 74 74 73 73 73 72 72 72 71 71 71 71 72 72 72 72 72 73 72 72 69 67 65 71 72 72 71 71
71 68 71 77 76 76 75 74 74 75 75 74 75 74 73 73 74 73 73 72 71 71 71 71 72 72 73 74 75 75 75 74 72 71 72 66 68 68 70 73 72 72 71
71 70 72 76 76 75 75 73 74 74 74 73 74 74 73 73 73 72 72 72 72 72 73 74 75 75 75 75 77 77 77 75 71 71 72 68 69 69 71 72 73 73 72
71 71 72 73 75 75 75 74 75 75 73 72 73 72 73 73 73 72 73 73 73 74 75 75 76 76 76 77 77 78 78 77 72 71 71 69 69 68 69 69 73 73 73
71 72 73 73 72 72 70 73 75 75 75 75 74 73 73 73 73 73 74 73 75 75 75 75 76 75 77 77 78 77 75 74 70 71 72 70 69 70 72 73 72 74 73
70 72 73 72 73 73 74 70 72 74 73 73 72 73 73 72 71 70 72 74 75 75 75 75 75 75 76 75 74 74 72 66 69 70 71 73 72 72 72 73 74 75 73
68 70 71 73 72 71 72 72 71 70 70 72 72 74 72 72 72 72 72 74 73 73 74 74 74 73 74 70 67 71 63 64 66 70 70 73 73 73 72 74 74 75 74
69 69 71 73 74 70 69 71 69 70 71 72 74 74 74 73 73 72 72 71 72 70 68 70 70 70 72 70 68 68 66 63 63 64 69 73 74 74 73 74 75 75 75
69 69 70 73 73 70 68 69 69 70 71 71 72 74 74 72 73 74 72 72 73 70 72 71 70 72 72 72 70 70 66 66 64 64 67 72 74 74 73 74 74 75 75
69 69 70 73 73 70 71 70 70 71 70 70 72 73 73 73 73 73 73 71 71 70 70 72 71 72 73 72 70 71 69 66 65 64 65 70 74 74 74 74 75 75 74
68 68 70 72 72 70 70 73 72 71 71 71 72 73 74 73 73 73 72 71 71 73 73 72 73 73 73 71 70 72 71 68 65 65 64 66 72 75 75 74 74 74 74
68 67 69 71 70 70 70 72 71 70 69 71 72 73 73 74 73 75 72 72 73 73 75 73 74 74 73 71 72 71 70 70 67 66 66 66 67 72 74 74 74 73 73
68 68 70 68 70 70 70 70 68 69 71 71 72 72 73 73 72 74 71 71 72 73 73 73 73 73 72 72 72 71 71 70 68 67 66 67 68 66 71 72 73 73 71
69 70 71 71 70 70 70 69 70 71 71 72 72 71 74 73 72 73 72 72 73 71 72 76 73 74 72 72 70 70 71 68 66 65 68 68 69 68 68 70 70 72 70
69 70 71 71 71 72 69 71 70 71 73 73 72 72 73 72 73 74 72 73 72 70 70 72 75 73 73 72 70 70 70 66 66 67 67 66 69 69 68 69 68 67 69
68 69 71 71 72 71 69 68 69 70 71 71 72 73 74 73 73 74 72 72 72 72 72 74 73 73 77 74 71 66 66 67 65 65 68 68 69 69 70 69 69 68 66
67 69 71 71 72 71 69 71 71 72 70 71 72 73 73 73 73 73 74 72 73 71 74 73 75 74 75 75 72 69 61 61 62 67 69 69 69 67 67 68 70 69 68
66 68 70 71 72 71 72 72 73 73 72 70 70 70 71 73 74 74 74 73 74 73 70 73 75 73 71 72 73 72 62 58 61 65 68 69 68 66 68 69 70 70 70
65 67 70 71 72 71 73 73 74 69 68 69 70 70 71 73 73 73 75 75 75 73 74 75 75 76 75 72 72 71 71 69 61 59 65 67 66 66 66 64 63 63 64
65 66 67 70 72 72 73 73 72 73 69 69 70 73 74 74 73 72 74 75 75 73 75 75 76 75 77 77 75 72 70 68 68 67 60 64 67 59 57 58 57 56 59
64 65 66 70 72 72 72 73 74 74 73 69 70 69 69 69 70 73 73 74 75 75 75 75 76 77 77 76 77 75 74 69 69 67 63 67 66 59 56 55 55 54 54
Lifted_Index
-5 -5 -5 -6 -6 -6 -6 -7 -7 -7 -7 -7 -7 -7 -7 -7 -6 -7 -7 -6 -6 -6 -6 -6 -5 -5 -5 -5 -5 -5 -5 -5 -4 -4 -4 -4 -4 -4 -4 -4 -3 -3 -4
-5 -5 -6 -6 -6 -6 -6 -6 -6 -7 -7 -7 -7 -7 -7 -7 -7 -6 -6 -6 -6 -6 -6 -6 -5 -5 -5 -5 -5 -5 -5 -5 -4 -4 -4 -4 -4 -4 -4 -4 -3 -3 -4
-4 -5 -6 -6 -6 -6 -6 -6 -6 -6 -6 -7 -7 -7 -7 -7 -6 -6 -6 -6 -6 -6 -6 -6 -5 -5 -5 -5 -5 -5 -5 -5 -4 -4 -3 -3 -3 -4 -4 -4 -4 -4 -4
-4 -5 -5 -6 -6 -6 -6 -6 -6 -6 -6 -6 -6 -6 -6 -6 -6 -6 -5 -5 -6 -6 -6 -5 -5 -5 -5 -5 -5 -5 -5 -5 -5 -4 -3 -2 -2 -3 -4 -5 -4 -4 -4
-4 -5 -5 -6 -6 -6 -5 -5 -5 -6 -6 -5 -5 -6 -6 -6 -5 -5 -5 -5 -5 -5 -5 -5 -5 -5 -5 -5 -5 -5 -5 -5 -5 -5 -4 -3 -2 -3 -4 -5 -5 -4 -4
-4 -4 -5 -5 -6 -5 -5 -5 -5 -5 -5 -5 -5 -5 -5 -5 -5 -5 -5 -5 -5 -5 -5 -5 -5 -5 -5 -5 -5 -5 -5 -5 -6 -6 -5 -3 -2 -2 -4 -5 -5 -4 -4
-4 -4 -4 -5 -5 -5 -5 -4 -4 -5 -5 -5 -5 -5 -5 -5 -5 -4 -4 -4 -5 -5 -5 -5 -6 -6 -6 -6 -6 -6 -6 -6 -6 -6 -5 -3 -2 -2 -4 -5 -5 -5 -5
-5 -4 -5 -5 -5 -5 -5 -4 -4 -5 -4 -4 -4 -4 -4 -4 -4 -4 -4 -4 -5 -5 -5 -6 -7 -7 -7 -7 -7 -8 -7 -7 -6 -6 -5 -3 -2 -2 -3 -5 -6 -6 -5
-5 -5 -5 -5 -5 -5 -4 -4 -4 -5 -4 -4 -4 -4 -4 -5 -5 -4 -5 -5 -5 -6 -6 -7 -7 -7 -7 -7 -7 -8 -8 -7 -7 -7 -6 -4 -3 -3 -3 -4 -5 -6 -6
-5 -5 -5 -5 -4 -4 -3 -3 -4 -4 -4 -4 -4 -4 -5 -5 -5 -5 -5 -6 -7 -7 -7 -7 -7 -7 -7 -7 -7 -7 -7 -6 -7 -7 -7 -5 -4 -4 -4 -5 -5 -6 -6
-4 -4 -4 -4 -4 -3 -3 -3 -3 -4 -4 -4 -4 -5 -5 -5 -5 -5 -6 -6 -7 -7 -7 -7 -7 -7 -6 -6 -6 -6 -5 -6 -7 -7 -7 -6 -5 -5 -6 -6 -7 -7 -7
-3 -4 -4 -4 -4 -3 -3 -3 -2 -3 -3 -4 -4 -5 -5 -5 -5 -6 -6 -7 -7 -7 -7 -7 -6 -6 -6 -5 -5 -5 -4 -5 -5 -6 -7 -6 -6 -6 -6 -7 -7 -7 -7
-3 -3 -3 -4 -3 -2 -2 -2 -2 -3 -3 -4 -5 -5 -5 -5 -6 -6 -7 -7 -6 -6 -6 -6 -6 -6 -6 -6 -5 -5 -4 -4 -4 -5 -5 -6 -6 -6 -6 -7 -7 -7 -7
-2 -2 -3 -3 -3 -2 -1 -1 -2 -3 -3 -4 -4 -5 -5 -6 -6 -6 -7 -6 -6 -6 -6 -7 -7 -7 -7 -7 -6 -5 -5 -4 -4 -4 -4 -5 -6 -6 -6 -6 -6 -6 -6
-2 -2 -2 -3 -2 -1 -1 -1 -2 -3 -3 -3 -4 -5 -5 -6 -6 -6 -6 -6 -6 -7 -7 -7 -7 -8 -8 -7 -7 -6 -5 -4 -4 -3 -4 -4 -5 -6 -6 -6 -6 -6 -6
-2 -1 -2 -2 -1 -1 -1 -2 -2 -2 -3 -3 -4 -5 -5 -6 -6 -6 -6 -7 -7 -7 -8 -8 -8 -8 -8 -8 -7 -7 -6 -5 -3 -3 -3 -4 -5 -5 -6 -6 -5 -5 -5
-1 -1 -1 -1 -1 -0 -1 -1 -2 -2 -3 -4 -4 -5 -5 -6 -6 -6 -7 -7 -7 -8 -8 -8 -8 -8 -8 -8 -8 -7 -6 -5 -4 -3 -3 -4 -4 -5 -5 -6 -6 -5 -5
-1 -1 -1 -1 -1 -0 -0 -1 -1 -2 -3 -4 -4 -5 -5 -5 -6 -6 -7 -7 -7 -8 -8 -9 -9 -9 -9 -8 -8 -7 -7 -5 -4 -4 -4 -4 -5 -5 -5 -5 -5 -5 -5
-1 -1 -1 -1 -1 -1 -0 -1 -1 -2 -3 -4 -5 -5 -5 -5 -6 -6 -7 -7 -7 -8 -8 -9 -9 -9 -9 -8 -7 -7 -6 -5 -4 -4 -4 -5 -5 -5 -5 -5 -5 -5 -5
-1 -1 -1 -1 -1 -1 -0 -1 -2 -3 -4 -4 -5 -5 -6 -6 -6 -7 -7 -8 -8 -7 -8 -9 -9 -9 -9 -8 -7 -6 -5 -4 -3 -4 -4 -4 -4 -4 -4 -4 -4 -4 -4
-1 -1 -2 -1 -1 -1 -1 -1 -3 -4 -4 -4 -5 -6 -6 -6 -6 -7 -7 -7 -7 -8 -8 -9 -8 -8 -7 -7 -7 -6 -4 -3 -3 -3 -4 -4 -4 -4 -4 -4 -4 -4 -3
-1 -1 -2 -2 -1 -1 -1 -2 -3 -4 -4 -4 -5 -5 -6 -6 -6 -7 -7 -7 -8 -8 -8 -8 -7 -6 -6 -6 -6 -5 -4 -3 -3 -3 -4 -4 -4 -3 -3 -4 -4 -4 -4
-1 -1 -1 -2 -1 -1 -1 -2 -3 -3 -4 -4 -4 -5 -5 -6 -7 -7 -8 -8 -8 -8 -8 -8 -7 -6 -5 -5 -5 -5 -4 -3 -3 -3 -4 -4 -3 -3 -3 -3 -3 -3 -3
-0 -0 -1 -1 -1 -1 -2 -2 -3 -3 -3 -4 -4 -4 -5 -6 -7 -8 -8 -8 -9 -8 -8 -8 -7 -6 -6 -5 -5 -5 -4 -3 -3 -3 -3 -3 -2 -2 -1 -1 -1 -1 -1
0 0 -0 -1 -1 -1 -2 -2 -3 -3 -3 -3 -3 -4 -5 -6 -6 -7 -8 -8 -9 -9 -8 -8 -7 -7 -6 -6 -5 -5 -4 -3 -3 -3 -2 -3 -2 -1 -1 -0 0 1 1
1 0 0 -0 -1 -1 -2 -2 -3 -3 -3 -3 -3 -3 -4 -5 -6 -6 -7 -8 -9 -9 -9 -8 -8 -7 -6 -6 -5 -5 -4 -3 -3 -3 -2 -3 -2 -1 -1 0 1 1 1